timestamp,surface_pressure_avg,surface_temp_avg,battery_voltage,lat,long
2022-10-04 00:09:00+00:00,224.6448,14.5,11.37,47.84626,-54.09684
2022-10-04 00:19:00+00:00,222.2131,14.5,11.37,47.84626,-54.09684
2022-10-04 00:29:00+00:00,219.5981,14.5,11.37,47.84626,-54.09684
2022-10-04 00:39:00+00:00,218.6031,14.49,11.37,47.84626,-54.09684
2022-10-04 00:49:00+00:00,218.3548,14.45,11.37,47.84626,-54.09684
2022-10-04 00:59:00+00:00,218.6613,14.1,11.37,47.84626,-54.09684
2022-10-04 01:09:00+00:00,218.1431,13.8,11.37,47.84626,-54.09684
2022-10-04 01:19:00+00:00,214.3165,13.72,11.37,47.84626,-54.09684
2022-10-04 01:29:00+00:00,212.4065,13.64,11.37,47.84626,-54.09684
2022-10-04 01:39:00+00:00,217.0431,13.37,11.37,47.84626,-54.09684
2022-10-04 01:49:00+00:00,218.5497,13.5,11.37,47.84626,-54.09684
2022-10-04 01:59:00+00:00,216.6747,13.6,11.37,47.84626,-54.09684
2022-10-04 02:09:00+00:00,219.3215,13.75,11.37,47.84626,-54.09684
2022-10-04 02:19:00+00:00,223.6581,13.85,11.37,47.84626,-54.09684
2022-10-04 02:29:00+00:00,225.1197,13.9,11.37,47.84626,-54.09684
2022-10-04 02:39:00+00:00,226.9897,13.98,11.37,47.84626,-54.09684
2022-10-04 02:49:00+00:00,234.2565,14.07,11.37,47.84626,-54.09684
2022-10-04 02:59:00+00:00,242.4614,14.12,11.37,47.84626,-54.09684
2022-10-04 03:09:00+00:00,245.7414,14.2,11.37,47.84626,-54.09684
2022-10-04 03:19:00+00:00,247.3764,14.2,11.37,47.84626,-54.09684
2022-10-04 03:29:00+00:00,255.4531,14.24,11.37,47.84626,-54.09684
2022-10-04 03:39:00+00:00,263.9814,14.27,11.37,47.84626,-54.09684
2022-10-04 03:49:00+00:00,265.9965,14.28,11.37,47.84626,-54.09684
2022-10-04 03:59:00+00:00,264.9514,14.29,11.37,47.84626,-54.09684
2022-10-04 04:09:00+00:00,268.7047,14.3,11.37,47.84626,-54.09684
2022-10-04 04:19:00+00:00,273.0064,14.3,11.37,47.84626,-54.09684
2022-10-04 04:29:00+00:00,275.0531,14.29,11.37,47.84626,-54.09684
2022-10-04 04:39:00+00:00,277.7847,14.29,11.37,47.84626,-54.09684
2022-10-04 04:49:00+00:00,281.8331,14.29,11.37,47.84626,-54.09684
2022-10-04 04:59:00+00:00,282.9948,14.28,11.37,47.84626,-54.09684
2022-10-04 05:09:00+00:00,284.8714,14.27,11.37,47.84626,-54.09684
2022-10-04 05:19:00+00:00,290.5331,14.24,11.37,47.84626,-54.09684
2022-10-04 05:29:00+00:00,294.2764,14.26,11.37,47.84626,-54.09684
2022-10-04 05:39:00+00:00,293.303,14.2,11.37,47.84626,-54.09684
2022-10-04 05:49:00+00:00,294.0664,14.2,11.37,47.84626,-54.09684
2022-10-04 05:59:00+00:00,295.0864,14.24,11.37,47.84626,-54.09684
2022-10-04 06:09:00+00:00,296.8398,14.28,11.37,47.84626,-54.09684
2022-10-04 06:19:00+00:00,296.8414,14.23,11.3,47.84626,-54.09684
2022-10-04 06:29:00+00:00,299.9147,14.25,11.3,47.84626,-54.09684
2022-10-04 06:39:00+00:00,300.9996,14.29,11.3,47.84626,-54.09684
2022-10-04 06:49:00+00:00,303.0647,14.3,11.3,47.84626,-54.09684
2022-10-04 06:59:00+00:00,302.4847,14.3,11.3,47.84626,-54.09684
2022-10-04 07:09:00+00:00,299.453,14.3,11.3,47.84626,-54.09684
2022-10-04 07:19:00+00:00,296.3813,14.3,11.3,47.84626,-54.09684
2022-10-04 07:29:00+00:00,295.0646,14.3,11.3,47.84626,-54.09684
2022-10-04 07:39:00+00:00,287.618,14.3,11.3,47.84626,-54.09684
2022-10-04 07:49:00+00:00,281.2114,14.27,11.3,47.84626,-54.09684
2022-10-04 07:59:00+00:00,275.723,14.27,11.3,47.84626,-54.09684
2022-10-04 08:09:00+00:00,271.2714,14.28,11.3,47.84626,-54.09684
2022-10-04 08:19:00+00:00,264.2448,14.25,11.3,47.84626,-54.09684
2022-10-04 08:29:00+00:00,257.8664,14.2,11.3,47.84626,-54.09684
2022-10-04 08:39:00+00:00,254.3164,14.15,11.3,47.84626,-54.09684
2022-10-04 08:49:00+00:00,251.0397,14.1,11.3,47.84626,-54.09684
2022-10-04 08:59:00+00:00,246.9098,14.08,11.3,47.84626,-54.09684
2022-10-04 09:09:00+00:00,242.7014,14.0,11.3,47.84626,-54.09684
2022-10-04 09:19:00+00:00,242.2397,13.98,11.3,47.84626,-54.09684
2022-10-04 09:29:00+00:00,239.9963,13.9,11.3,47.84626,-54.09684
2022-10-04 09:39:00+00:00,231.3131,13.69,11.3,47.84626,-54.09684
2022-10-04 09:49:00+00:00,225.1914,13.5,11.3,47.84626,-54.09684
2022-10-04 09:59:00+00:00,226.7081,13.59,11.3,47.84626,-54.09684
2022-10-04 10:09:00+00:00,224.5797,13.67,11.3,47.84626,-54.09684
2022-10-04 10:19:00+00:00,217.2164,13.7,11.37,47.84626,-54.09684
2022-10-04 10:29:00+00:00,214.4714,13.8,11.37,47.84626,-54.09684
2022-10-04 10:39:00+00:00,216.173,13.8,11.37,47.84626,-54.09684
2022-10-04 10:49:00+00:00,214.0464,13.88,11.37,47.84626,-54.09684
2022-10-04 10:59:00+00:00,210.1331,13.9,11.37,47.84626,-54.09684
2022-10-04 11:09:00+00:00,210.4114,13.9,11.37,47.84626,-54.09684
2022-10-04 11:19:01+00:00,210.0881,13.9,11.61,47.84626,-54.09684
2022-10-04 11:29:01+00:00,206.8464,13.9,11.61,47.84626,-54.09684
2022-10-04 11:39:01+00:00,205.4864,13.9,11.61,47.84626,-54.09684
2022-10-04 11:49:01+00:00,205.7398,13.9,11.61,47.84626,-54.09684
2022-10-04 11:59:01+00:00,204.5147,13.9,11.61,47.84626,-54.09684
2022-10-04 12:09:01+00:00,203.3931,13.9,11.61,47.84626,-54.09684
2022-10-04 12:19:00+00:00,205.5232,13.92,11.77,47.84626,-54.09684
2022-10-04 12:29:00+00:00,208.1981,13.97,11.77,47.84626,-54.09684
2022-10-04 12:39:00+00:00,207.7397,14.0,11.77,47.84626,-54.09684
2022-10-04 12:49:00+00:00,207.4398,14.0,11.77,47.84626,-54.09684
2022-10-04 12:59:00+00:00,208.5348,14.09,11.77,47.84626,-54.09684
2022-10-04 13:09:00+00:00,209.0448,14.1,11.77,47.84626,-54.09684
2022-10-04 13:19:00+00:00,209.3064,14.19,11.86,47.84626,-54.09684
2022-10-04 13:29:00+00:00,208.5115,14.2,11.86,47.84626,-54.09684
2022-10-04 13:39:00+00:00,209.8765,14.2,11.86,47.84626,-54.09684
2022-10-04 13:49:00+00:00,211.3965,14.2,11.86,47.84626,-54.09684
2022-10-04 13:59:00+00:00,212.0181,14.21,11.86,47.84626,-54.09684
2022-10-04 14:09:00+00:00,213.8264,14.25,11.86,47.84626,-54.09684
2022-10-04 14:19:00+00:00,217.9814,14.29,11.86,47.84626,-54.09684
2022-10-04 14:29:00+00:00,221.6931,14.3,11.86,47.84626,-54.09684
2022-10-04 14:39:00+00:00,225.8214,14.3,11.86,47.84626,-54.09684
2022-10-04 14:49:00+00:00,230.6864,14.36,11.86,47.84626,-54.09684
2022-10-04 14:59:00+00:00,233.6248,14.4,11.86,47.84626,-54.09684
2022-10-04 15:09:00+00:00,237.6414,14.4,11.86,47.84626,-54.09684
2022-10-04 15:19:00+00:00,244.2297,14.4,11.86,47.84626,-54.09684
2022-10-04 15:29:00+00:00,251.3464,14.42,11.86,47.84626,-54.09684
2022-10-04 15:39:00+00:00,256.8998,14.44,11.86,47.84626,-54.09684
2022-10-04 15:49:00+00:00,262.1781,14.44,11.86,47.84626,-54.09684
2022-10-04 15:59:00+00:00,268.7164,14.4,11.86,47.84626,-54.09684
2022-10-04 16:09:00+00:00,275.7514,14.4,11.86,47.84626,-54.09684
2022-10-04 16:19:00+00:00,281.7414,14.33,11.77,47.84626,-54.09684
2022-10-04 16:29:00+00:00,284.7931,14.39,11.77,47.84626,-54.09684
2022-10-04 16:39:00+00:00,289.703,14.4,11.77,47.84626,-54.09684
2022-10-04 16:49:00+00:00,294.8531,14.4,11.77,47.84626,-54.09684
2022-10-04 16:59:00+00:00,296.4314,14.4,11.77,47.84626,-54.09684
2022-10-04 17:09:00+00:00,300.358,14.4,11.77,47.84626,-54.09684
2022-10-04 17:19:00+00:00,304.9247,14.4,11.77,47.84626,-54.09684
2022-10-04 17:29:00+00:00,306.133,14.4,11.77,47.84626,-54.09684
2022-10-04 17:39:00+00:00,307.5797,14.4,11.77,47.84626,-54.09684
2022-10-04 17:49:00+00:00,313.478,14.4,11.77,47.84626,-54.09684
2022-10-04 17:59:00+00:00,316.508,14.39,11.77,47.84626,-54.09684
2022-10-04 18:09:00+00:00,314.178,14.4,11.77,47.84626,-54.09684
2022-10-04 18:19:00+00:00,316.1647,14.4,11.7,47.84626,-54.09684
2022-10-04 18:29:00+00:00,322.58799999999997,14.38,11.7,47.84626,-54.09684
2022-10-04 18:39:00+00:00,324.7113,14.4,11.7,47.84626,-54.09684
2022-10-04 18:49:00+00:00,324.1913,14.43,11.7,47.84626,-54.09684
2022-10-04 18:59:00+00:00,326.8014,14.48,11.7,47.84626,-54.09684
2022-10-04 19:09:00+00:00,330.6063,14.5,11.7,47.84626,-54.09684
2022-10-04 19:19:00+00:00,327.413,14.5,11.53,47.84626,-54.09684
2022-10-04 19:29:00+00:00,326.063,14.5,11.53,47.84626,-54.09684
2022-10-04 19:39:00+00:00,328.4963,14.5,11.53,47.84626,-54.09684
2022-10-04 19:49:00+00:00,324.2947,14.53,11.53,47.84626,-54.09684
2022-10-04 19:59:00+00:00,319.3713,14.55,11.53,47.84626,-54.09684
2022-10-04 20:09:00+00:00,319.0164,14.58,11.53,47.84626,-54.09684
2022-10-04 20:19:00+00:00,316.0813,14.59,11.46,47.84626,-54.09684
2022-10-04 20:29:00+00:00,308.0297,14.56,11.46,47.84626,-54.09684
2022-10-04 20:39:00+00:00,303.0763,14.51,11.46,47.84626,-54.09684
2022-10-04 20:49:00+00:00,302.888,14.5,11.46,47.84626,-54.09684
2022-10-04 20:59:00+00:00,299.618,14.5,11.46,47.84626,-54.09684
2022-10-04 21:09:00+00:00,290.358,14.5,11.46,47.84626,-54.09684
2022-10-04 21:19:00+00:00,286.793,14.5,11.46,47.84626,-54.09684
2022-10-04 21:29:00+00:00,283.8464,14.5,11.46,47.84626,-54.09684
2022-10-04 21:39:00+00:00,276.2397,14.5,11.46,47.84626,-54.09684
2022-10-04 21:49:00+00:00,268.6581,14.5,11.46,47.84626,-54.09684
2022-10-04 21:59:00+00:00,268.0064,14.5,11.46,47.84626,-54.09684
2022-10-04 22:09:00+00:00,262.9848,14.5,11.46,47.84626,-54.09684
2022-10-04 22:19:00+00:00,256.3297,14.5,11.46,47.84626,-54.09684
2022-10-04 22:29:00+00:00,254.8597,14.49,11.46,47.84626,-54.09684
2022-10-04 22:39:00+00:00,253.868,14.49,11.46,47.84626,-54.09684
2022-10-04 22:49:00+00:00,249.5297,14.49,11.46,47.84626,-54.09684
2022-10-04 22:59:00+00:00,245.1331,14.46,11.46,47.84626,-54.09684
2022-10-04 23:09:00+00:00,243.5231,14.4,11.46,47.84626,-54.09684
2022-10-04 23:19:00+00:00,241.1348,14.4,11.46,47.84626,-54.09684
2022-10-04 23:29:00+00:00,237.6081,14.4,11.46,47.84626,-54.09684
2022-10-04 23:39:00+00:00,232.4214,14.4,11.46,47.84626,-54.09684
2022-10-04 23:49:00+00:00,230.6664,14.39,11.46,47.84626,-54.09684
2022-10-04 23:59:00+00:00,228.5164,14.38,11.46,47.84626,-54.09684
